Regional Weather Roundup
Issued by NWS

Home | Current Version | Previous Version | Graphics & Text | Print | Product List | Glossary Off
Versions: 1 2 3 4 5 6 7 8 9 10 11 12 13 14 15 16 17 18 19 20 21 22 23 24 25 26 27 28 29 30 31 32 33 34 35 36 37 38 39 40 41 42 43 44 45 46 47 48 49 50

001
ASUS43 KMKX 252000
RWRWI

WISCONSIN REGIONAL WEATHER ROUNDUP
NATIONAL WEATHER SERVICE MILWAUKEE/SULLIVAN WI
300 PM CDT SUN JUN 25 2017

NOTE: "FAIR" INDICATES FEW OR NO CLOUDS BELOW 12,000 FEET WITH NO
SIGNIFICANT WEATHER AND/OR OBSTRUCTIONS TO VISIBILITY.

WIZ001-002-006>008-014>016-023>028-252100-
NORTHWEST WISCONSIN

CITY           SKY/WX    TMP DP  RH WIND       PRES   REMARKS
SUPERIOR ARPT  NOT AVBL
ASHLAND        LGT RAIN  53  50  89 W14G20    30.07R
HAYWARD        CLOUDY    57  48  72 NW12G22   30.08F
SIREN          CLOUDY    60  46  58 N12G17    30.11S
CUMBERLAND     CLOUDY    59  45  58 NW20G25   30.10S
RICE LAKE      CLOUDY    60  52  75 NW15G25   30.11R
CHETEK         CLOUDY    58  53  83 NW9G18    30.09S
LADYSMITH      CLOUDY    56  51  86 NW15      30.09R
EAU CLAIRE     NOT AVBL
MENOMONIE      PTSUNNY   60  55  82 W14G24    30.10S
NEW RICHMOND   CLOUDY    62  47  58 NW15G21   30.12F
OSCEOLA        PTSUNNY   66  46  48 NW14      30.15S
$$

WIZ003>005-009-010-017-018-252100-
NORTH CENTRAL WISCONSIN

CITY           SKY/WX    TMP DP  RH WIND       PRES   REMARKS
MANITOWISH WTR DRIZZLE   56  55  94 W9        30.01S
ARBOR VITAE    CLOUDY    61  51  70 W20       30.00S
WOODRUFF       CLOUDY    61  51  70 W20       30.00S
RHINELANDER    LGT RAIN  55  53  93 W13       30.02R
EAGLE RIVER    PTSUNNY   59  50  71 NE7       29.98F
LAND O LAKES   TSTM      55  52  91 NW3       30.00F
PHILLIPS       RAIN      53  52  99 NW8       30.04S
TOMAHAWK       NOT AVBL
MEDFORD        RAIN      54  52  94 NW12      30.05R
MERRILL        CLOUDY    62  51  65 W14       30.02F
$$

WIZ029-030-035-036-043>047-252100-
CENTRAL WISCONSIN

CITY           SKY/WX    TMP DP  RH WIND       PRES   REMARKS
WAUSAU         CLOUDY    62  52  69 W16       30.01F
MOSINEE        NOT AVBL
MARSHFIELD     PTSUNNY   61  51  70 W14G23    30.04F
STEVENS POINT  CLOUDY    59  53  80 W9        30.05F
WAUPACA        PTSUNNY   68  49  50 W12G20    30.03F
WAUTOMA        NOT AVBL
WISC RAPIDS    CLOUDY    63  54  72 NW7G20    30.06F
CAMP DOUGLAS   NOT AVBL
$$

WIZ011>013-019>022-031-037>040-048>050-252100-
NORTHEAST WISCONSIN

CITY           SKY/WX    TMP DP  RH WIND       PRES   REMARKS
ANTIGO         CLOUDY    60  53  78 W13       30.02F
SHAWANO        CLOUDY    66  55  69 W7        30.00S
OCONTO         CLOUDY    60  53  79 S3        29.99R
STURGEON BAY   RAIN      59  53  80 W6          N/A
GREEN BAY      PTSUNNY   70  53  54 W17G23    29.99F
MANITOWOC      NOT AVBL
APPLETON       PTSUNNY   66  46  48 W16       30.01F
CLINTONVILLE   MOSUNNY   68  48  49 W16       30.01S
OSHKOSH        PTSUNNY   67  52  58 W9        30.03F
$$

WIZ032>034-041-042-053>061-252100-
SOUTHWEST WISCONSIN

CITY           SKY/WX    TMP DP  RH WIND       PRES   REMARKS
LA CROSSE      CLOUDY    67  56  67 W14       30.11S
SPARTA         CLOUDY    65  52  62 W9G18     30.09F
VIROQUA        CLOUDY    61  53  73 W9        30.12F
BOSCOBEL       CLOUDY    65  52  62 W8        30.13F
PRAIRIE DU CHI PTSUNNY   62  48  60 W15G22    30.15F
PLATTEVILLE    CLOUDY    62  52  69 W10G20    30.15F
$$

WIZ056-057-062-063-064-067-068-252100-
SOUTH CENTRAL WISCONSIN

CITY           SKY/WX    TMP DP  RH WIND       PRES   REMARKS
REEDSBURG      CLOUDY    62  50  65 W13G21    30.10S
BARABOO/DELLS  CLOUDY    62  49  60 W10       30.09F
LONE ROCK      CLOUDY    63  50  62 W12       30.11F
MINERAL POINT  CLOUDY    61  52  72 W13       30.14S
MADISON        PTSUNNY   62  48  60 W10       30.10S
MIDDLETON      CLOUDY    64  50  61 W18       30.11S
WATERTOWN      PTSUNNY   66  50  57 W17G23    30.08S
MONROE         CLOUDY    63  46  55 W17G28    30.12S
JANESVILLE     PTSUNNY   68  48  49 W15G22    30.10S
$$

WIZ051-052-058>065-066-070>072-252100-
SOUTHEAST WISCONSIN

CITY           SKY/WX    TMP DP  RH WIND       PRES   REMARKS
MILWAUKEE      PTSUNNY   72  45  37 W16G25    30.05F
WAUKESHA       PTSUNNY   66  48  52 W15G24    30.08S
MILWAUKEE/TIMM PTSUNNY   66  45  45 W16G24    30.07R
RACINE         PTSUNNY   69  47  45 NW15G23   30.07F
KENOSHA        MOSUNNY   70  49  47 W20G26    30.07F
FOND DU LAC    PTSUNNY   68  49  50 W15       30.04F
SHEBOYGAN      CLOUDY    68  52  56 W15G24    30.02F
WEST BEND      PTSUNNY   66  46  48 W14G25    30.05S
JUNEAU         PTSUNNY   64  49  59 W16G22    30.08S
$$

LSZ147-162-252100-
LAKE SUPERIOR

STATION/POSITION TIME  TEMP    WIND        PRES    WAVE
                       AIR SEA DIR/SP/G            HT/PER
                 (UTC) (F)     (DEG/KT/KT) (MB)    (FT/S)
W MID LAKE BUOY  1850   42 39   70/  6/  8 1017.4R   0
DEVILS ISLAND    1900   52     280/ 10/ 11 1017.0S
SAXON HARBOR     1930   55     330/  8/ 12 1016.6R
$$

LMZ867-665-643>646-252100-
LAKE MICHIGAN

STATION/POSITION TIME  TEMP    WIND        PRES    WAVE
                       AIR SEA DIR/SP/G            HT/PER
                 (UTC) (F)     (DEG/KT/KT) (MB)    (FT/S)
CHAMBERS ISLAND  1940   65     140/  4/  7 1014.9S
S GREEN BAY BUOY 1900   64     220/  4/  4 1015.3
N MID LAKE BUOY  1850   57 58  240/  4/  4 1015.9F   1/ 3
NORTHPORT PIER   1940   63     330/  3/  6 1015.2S
KEWAUNEE LAKESHO 1930   68     310/  5/ 12 1015.1F
SHEBOYGAN LAKESH 1900   66     270/ 11/ 14 1016.4F
PORT WASHINGTON  1930   71     270/  9/ 17 1017.6F
ATWATER BUOY     1809   64 57  270/ 12/ 19 1017.6F
MILWAUKEE LAKESH 1930   67     280/ 13/ 16   N/A
S MID LAKE BUOY  1850   62 61  290/ 10/ 12 1018.2S   2/ 4
KENOSHA   LAKESH 1900   68     270/ 10/ 23 1017.9
$$

TC  - TEMPERATURE IN CELSIUS
VSB - VISIBILITY IN STATUTE MILES
WCI - WIND CHILL INDEX
HX  - HEAT INDEX





USA.gov is the U.S. government's official web portal to all federal, state and local government web resources and services.